Regional Weather Roundup
Issued by NWS

Home | Current Version | Previous Version | Text Only | Print | Product List | Glossary Off
Versions: 1 2 3 4 5 6 7 8 9 10 11 12 13 14 15 16 17 18 19 20 21 22 23 24 25 26 27 28 29 30 31 32 33 34 35 36 37 38 39 40 41 42 43 44 45 46 47 48 49 50

091
ASUS43 KMPX 240901
RWRMN
WEATHER ROUNDUP FOR MINNESOTA
NATIONAL WEATHER SERVICE TWIN CITIES/CHANHASSEN MN
400 AM CDT TUE MAY 24 2016


NOTE: "FAIR" INDICATES FEW OR NO CLOUDS BELOW 12,000 FEET WITH NO
SIGNIFICANT WEATHER AND/OR OBSTRUCTIONS TO VISIBILITY. N/A MEANS
CURRENT SKY AND/OR WEATHER CONDITIONS ARE NOT AVAILABLE.

MNZ060>063-068>070-241000-
   Twin Cities Metro

CITY           SKY/WX    TMP DP  RH WIND       PRES   REMARKS
TWIN CITIES    PTCLDY    68  59  73 SW8       29.79F
ST PAUL        CLOUDY    67  60  78 S6        29.79F
CRYSTAL        MOCLDY    63  60  90 S5        29.78S
BLAINE         MOCLDY    64  63  94 S5        29.78F
EDEN PRAIRIE   CLOUDY    67  60  78 SW6       29.78S
SOUTH ST PAUL  CLOUDY    68  60  75 S5        29.79F
LAKE ELMO      MOCLDY    64  61  88 S5        29.81F
$$
MNZ001>005-007-008-013>017-022>024-027-028-241000-
   Northwest Minnesota

CITY           SKY/WX    TMP DP  RH WIND       PRES   REMARKS
BEMIDJI        CLOUDY    61  52  73 SE13      29.77R
HALLOCK        MOCLDY    55  50  82 CALM      29.74R
ROSEAU         CLOUDY    57  48  72 S6        29.74S
WARROAD        CLOUDY    57  50  77 CALM      29.75R
THIEF RVR FALL CLEAR     57  46  67 CALM      29.77R
CROOKSTON      PTCLDY    61  50  67 W12       29.79R
FOSSTON          N/A     55  48  76 CALM      29.78R
DETROIT LAKES  CLOUDY    59  54  82 SE3       29.78R
MOORHEAD       MOCLDY    63  52  67 N10G25    29.78R
PARK RAPIDS    MOCLDY    62  51  67 NE9       29.79R
MAHNOMEN       FAIR      59  52  78 W5        29.77R
$$
MNZ006-009>011-018-025>026-241000-
   North Central Minnesota

CITY           SKY/WX    TMP DP  RH WIND       PRES   REMARKS
BAUDETTE       CLOUDY    53  50  89 E5        29.75R
FLAG ISLAND    CLOUDY    61  54  77 SE6       29.74R
INTL FALLS     FOG       56  56 100 SE3       29.76S VSB 3/4
WASKISH        CLOUDY    61  55  82 CALM      29.75S
BIG FORK       CLOUDY    55  54  94 CALM      29.80R
LONGVILLE      CLOUDY    61  55  82 N3        29.78F THUNDER
GRAND RAPIDS     N/A    N/A N/A N/A MISG        N/A
CRANE LAKE     CLOUDY    57  55  94 CALM      29.80S
ORR            CLOUDY    57  55  94 CALM      29.77S
COOK           CLOUDY    55  55 100 CALM      29.81R
WALKER         LGT RAIN  57  54  88 E7        29.80F
$$
MNZ012-019>021-037-241000-
   Northeast Minnesota

CITY           SKY/WX    TMP DP  RH WIND       PRES   REMARKS
DULUTH         CLOUDY    59  58  96 SE7       29.82R
ELY            CLOUDY    57  55  94 S3        29.82R
HIBBING        CLOUDY    55  55 100 CALM      29.80R
EVELETH        MOCLDY    57  55  94 CALM      29.82R
DULUTH HARBOR  MOCLDY    55  54  94 NE8       29.81S
TWO HARBORS    CLOUDY    63  57  82 CALM      29.81R
SILVER BAY     LGT RAIN  61  59  94 CALM      29.81S
GRAND MARAIS     N/A     52  50  93 CALM      29.80S
G MARAIS ARPRT LGT RAIN  57  55  94 CALM      29.84S
$$
MNZ029>031-032-039>041-046>048-054>057-064-241000-
   West Central Minnesota

CITY           SKY/WX    TMP DP  RH WIND       PRES   REMARKS
FERGUS FALLS   PTCLDY    63  54  72 SE5       29.73R
WHEATON        CLEAR     61  55  82 S5        29.77R
MORRIS         CLEAR     57  55  94 S5        29.76R
ALEXANDRIA     LGT RAIN  58  56  93 SW6       29.78R
ELBOW LAKE     FAIR      59  56  88 S3        29.77S
WADENA         CLOUDY    59  57  94 CALM      29.78R FOG
GLENWOOD       PTCLDY    57  55  94 S6        29.78R FOG
APPLETON       CLEAR     57  54  88 CALM      29.76R
BENSON         FOG       55  54  94 CALM      29.77R VSB 1/4
ORTONVILLE     CLEAR     57  55  94 CALM      29.76S
MADISON        CLEAR     59  57  94 CALM      29.76S FOG
WILLMAR        FAIR      57  57 100 SE5       29.80R FOG
$$
MNZ033>034-036-042>043-049>051-058-059-241000-
   Central Minnesota

CITY           SKY/WX    TMP DP  RH WIND       PRES   REMARKS
ST CLOUD       CLOUDY    61  61 100 S6        29.77F
PAYNESVILLE    CLOUDY    61  61 100 S6        29.79R
AITKIN         CLOUDY    61  57  88 CALM      29.79R
PINE RIVER     CLOUDY    63  63 100 CALM      29.82R
BRAINERD       CLOUDY    60  60 100 N3        29.80R
STAPLES        CLOUDY    61  59  94 CALM      29.78R
LONG PRAIRIE   MOCLDY    59  57  94 S5        29.78R
LITTLE FALLS   CLOUDY    59  55  88 CALM      29.77S FOG
LITCHFIELD     CLOUDY    63  63 100 CALM      29.79S FOG
BUFFALO        CLOUDY    62  60  91 CALM      29.79F
MAPLE LAKE     MOCLDY    64  63  97 CALM      29.79F
HUTCHINSON     MOCLDY    64  63  97 S3        29.80R
$$
MNZ037-044-045-052-053-241000-
   East Central Minnesota

CITY           SKY/WX    TMP DP  RH WIND       PRES   REMARKS
PRINCETON      CLOUDY    64  63  94 S3        29.78S
MORA           CLOUDY    59  57  94 CALM      29.81S
CAMBRIDGE      CLOUDY    64  57  77 SE5       29.77R
RUSH CITY      CLOUDY    62  60  93 S6        29.79S
MOOSE LAKE     CLOUDY    61  59  94 CALM      29.79S
HINCKLEY       CLOUDY    61  61 100 CALM      29.80S
CLOQUET        CLOUDY    59  57  94 CALM      29.81S
MCGREGOR       CLOUDY    59  57  94 CALM      29.80S
$$
MNZ071>073-080-081-089-090-097-098-241000-
   Southwest Minnesota

CITY           SKY/WX    TMP DP  RH WIND       PRES   REMARKS
MONTEVIDEO     CLEAR     61  55  82 W3        29.78S
GRANITE FALLS  CLEAR     60  59  96 CALM      29.78S FOG
CANBY          CLEAR     66  62  89 SW6       29.78R
MARSHALL       CLEAR     61  59  93 SW12      29.78R
REDWOOD FALLS  PTCLDY    61  59  93 S6        29.77S FOG
OLIVIA         CLEAR     59  57  94 SE3       29.77F FOG
PIPESTONE      FOG       63  61  94 SW5       29.80S VSB 1
WINDOM         CLOUDY    61  61 100 CALM      29.81R FOG
WORTHINGTON    CLEAR     62  60  93 SW14      29.82R
JACKSON        CLOUDY    61  59  94 S7        29.83R FOG
SLAYTON        PTCLDY    62  62 100 SW9       29.81S FOG
$$
MNZ065>067-074>077-082>085-091>093-241000-
   South Central Minnesota

CITY           SKY/WX    TMP DP  RH WIND       PRES   REMARKS
MANKATO        CLOUDY    64  57  77 S7        29.81S
NEW ULM        CLOUDY    61  61 100 S6        29.79S
ST JAMES       MOCLDY    57  55  94 CALM      29.81S
FAIRMONT       CLOUDY    63  59  88 S13       29.81S
GLENCOE        CLOUDY    66  64  94 S6        29.79R
FARIBAULT      CLOUDY    64  61  88 S5        29.82R
OWATONNA       CLOUDY    64  59  82 S5        29.82R
WASECA         CLOUDY    63  57  82 S6        29.83R
ALBERT LEA     CLOUDY    64  61  88 MISG      29.82F
$$
MNZ078>079-086>088-094>096-241000-
   Southeast Minnesota

CITY           SKY/WX    TMP DP  RH WIND       PRES   REMARKS
ROCHESTER      CLOUDY    65  61  87 S8        29.84S
RED WING       CLOUDY    64  63  94 CALM      29.81S
STANTON        CLOUDY    66  60  79 S3        29.80S
DODGE CENTER   CLOUDY    64  61  88 S14       29.81F
WINONA         CLOUDY    63  61  94 SE3       29.84S
AUSTIN         CLOUDY    63  59  88 S6        29.83F
PRESTON        CLOUDY    62  59  89 S3        29.86S
$$
ABBREVIATIONS USED IN REMARKS
   TC - TEMPERATURES IN CELSIUS
  WCI - WIND CHILL INDEX
   HX - HEAT INDEX
  VSB - VISIBILITY
$$




USA.gov is the U.S. government's official web portal to all federal, state and local government web resources and services.